Flag for Brazil Weather past 2 weeks in Foz do Iguaçu, Paraná, Brazil

Now
61 °F

Passing clouds.


Feels Like: 61 °F
Forecast: 56 / 78 °F
Wind: 3 mph from Southwest

Location: Foz Do Iguacu Aeroporto

Current Time: Sep 16, 2014 at 1:57:45 AM

Latest Report: Sep 16, 2014 at 1:00 AM


Visibility: N/A

Pressure: 30.07 "Hg

Humidity: 88%

Dew point: 57 °F

Location of Foz do IguaçuLocation

Historic Weather in Foz do Iguaçu — Graph

°F

Foz do Iguaçu temperature yesterday

Maximum temperature yesterday: 88 °F (at 5:00 PM)
Minimum temperature yesterday: 59 °F (at 10:00 PM)
Average temperature yesterday: 66 °F

Past Weeks' High & Low Weather Summary

 TemperatureHumidityPressure
High97 °F (Sep 13, 3:00 PM)100% (Sep 1, 3:00 AM)30.12 "Hg (Sep 1, 3:00 AM)
Low59 °F (Sep 15, 10:00 PM)26% (Sep 13, 5:00 PM)29.68 "Hg (Sep 2, 4:00 PM)
Average74 °F71%29.92 "Hg
* Reported Sep 1 1:00 AM — Sep 16 1:00 AM, Foz do Iguaçu, Weather by CustomWeather, © 2014

Note: Actual official high and low records may vary slightly from our data, if they occured in-between our weather recording intervals... More about our weather records

Advertising

Foz do Iguaçu weather history for previous 24 hours

 ConditionsComfort  
Time TempWeatherWind HumidityBarometerVisibility
1:00 AM
Sep 16
61 °FPassing clouds.3 mph88%30.07 "HgN/A
12:00 AM61 °FPassing clouds.2 mph88%30.09 "HgN/A
11:00 PM
Sep 15
61 °FPassing clouds.3 mph83%30.09 "HgN/A
10:00 PM59 °FPassing clouds.3 mph88%30.09 "HgN/A
9:00 PM61 °FPassing clouds.2 mph83%30.07 "HgN/A
8:00 PM63 °FPassing clouds.5 mph77%30.07 "HgN/A
7:00 PM64 °FPassing clouds.5 mph78%30.04 "HgN/A
6:00 PM68 °FPassing clouds.5 mph69%30.04 "HgN/A
5:00 PM88 °FPartly sunny.6 mph35%30.04 "HgN/A
4:00 PM70 °FPartly sunny.7 mph64%30.01 "HgN/A
3:00 PM72 °FPartly sunny.6 mph65%30.01 "HgN/A
2:00 PM72 °FPartly sunny.6 mph65%30.04 "HgN/A
1:00 PM68 °FPartly sunny.12 mph69%30.07 "HgN/A
12:00 PM66 °FPartly sunny.9 mph73%30.09 "HgN/A
11:00 AM64 °FPartly sunny.8 mph78%30.09 "HgN/A
10:00 AM63 °FBroken clouds.9 mph83%30.07 "HgN/A
9:00 AM63 °FPartly sunny.7 mph88%30.07 "HgN/A
8:00 AM63 °FPartly sunny.5 mph94%30.04 "HgN/A
7:00 AM61 °FPartly sunny.5 mph100%30.04 "HgN/A
6:00 AM61 °FLight rain. Cloudy.8 mph100%30.04 "Hg5 mi
5:00 AM64 °FLight rain. Partly cloudy.8 mph94%29.98 "Hg5 mi
4:00 AM66 °FLight rain. Partly cloudy.6 mph94%29.98 "Hg3 mi
3:00 AM70 °FFog.5 mph94%29.95 "Hg3 mi
2:00 AM70 °FThunderstorms. Mostly cloudy.2 mph94%N/A3 mi
1:00 AM70 °FPartly cloudy.6 mph94%29.95 "HgN/A
Weather by CustomWeather, © 2014

See weather overviewHow to use our weather pages